Location: Casone le Fosse
(44.6547°N, 12.1103°E)
Time: 04:07:00
(UTC+00:00)

NOAA 15 - Pass Details

Date: 29 October 2020
Orbit: 797 x 813 km, 98.7° (Epoch: 01 December)

Event Time Altitude Azimuth Distance (km) Brightness Sun altitude
Rises 17:40:57 0° 161° (SSE) 3,320 7.6 -17.7°
Reaches altitude 10° 17:43:16 10° 160° (SSE) 2,394 6.9 -18.1°
Maximum altitude 17:48:34 80° 74° (ENE) 831 4.5 -19.1°
Drops below altitude 10° 17:53:55 10° 348° (NNW) 2,411 7.2 -20.0°
Sets 17:56:16 0° 348° (NNW) 3,347 8.0 -20.4°
